sat.trackr.live / text

‹ back to catalog

UNKNOWN

NORAD 82893

UNKNOWN UNKNOWN UNKNOWN

§ Identity

Operator
Country
Launch date
Launch site
Launch vehicle
Mass (kg)
RCS (m²)

External: N2YO · Heavens-Above

§ Orbital elements

Epoch: 2026-09-16T07:37:29.251488Z

Period
100.30 min
Inclination
98.9679°
Eccentricity
0.0020973
Mean motion
14.35686517 rev/d
Perigee alt
757.8 km
Apogee alt
787.8 km
Semi-major
7,150.9 km
B*
1.9433e-3
RAAN
29.4430°
Arg perigee
308.8764°
Mean anomaly
51.0549°
Rev number
46,375

§ Raw data

UNKNOWN1 82893U          26259.31769967  .00005581  00000+0  19433-2 0  99922 82893  98.9679  29.4430 0020973 308.8764  51.0549 14.35686517463754

JSON: /api/v1/satellites/82893 · /tle

For live sub-satellite position, see the globe view (requires WebGL).

§ Visibility from observer

Set your observer location to see the next 7 days of passes ≥ 10°. The values pass through the URL so the page stays shareable.

No JS? Fill the form by hand. The geolocation button needs JavaScript.